User: anonymous   Login
Location: Unspecified
(0.0000°N, 0.0000°E)
Time: 23:22:20
(UTC+01:00)
Language:

GPS 2-05 Rocket1 - Orbit

View from above orbital plane
View from above orbital plane
View from above satellite
View from above satellite

Ground track
Ground track

The orbit data is extracted from the following two-line orbital elements,

1 20362U 89097B   14354.21631443  .00024859  00000-0  76904-3 0  5923
2 20362 035.6194 319.0014 0099698 315.1970 162.4912 15.27771931359294
Epoch (UTC): 20 December 2014 05:11:29
Eccentricity: 0.0099698
inclination: 35.6194°
perigee height: 414 km
apogee height: 551 km
right ascension of ascending node: 319.0014°
argument of perigee: 315.1970°
revolutions per day: 15.27771931
mean anomaly at epoch: 162.4912°
orbit number at epoch: 35929

The dashed part of the orbit path shows where the satellite is in the earth's shadow,  

DLR